Погода в Бархатове

Россия / Тюменская область     56°28′25″N   65°13′40″E
темп.,
°C
ветер,
м/с
пор.,
м/с
влажн.,
%
обл.,
%
осадки,
мм/ч
давл.,
гПа
погр.,
м
11 апреля, вс
вс1123:00+3ю4109791 0.0 1038306
02:00+3ююз41093100 0.0 1038444
05:00+3ююз41093100 0.0 1038444
08:00+4ююз51290100 0.0 1037451
11:00+9ююз61071100 0.0 1036549
14:00+12ююз71052100 0.0 1035737
17:00+11ююз6125891 0.0 1034658
20:00+7ююз5137568 0.0 1034410
12 апреля, пн
пн1223:00+6юз5138228 0.0 1033328
02:00+5юз4118968 0.0 1033243
05:00+4зюз379495 0.0 1033142
08:00+7з3790100 0.0 1034210
11:00+11сз3577100 0.0 1034695
14:00+13ссз4548100 0.0 10351023
17:00+12ссз4555100 0.0 10361106
20:00+8ссз2375100 0.0 103743
13 апреля, вт
вт1323:00+6с367057 0.0 1039100
02:00+4ссв22705 0.0 104016
05:00+3ссв01700 0.0 104110
08:00+6з00600 0.0 1041102
11:00+10ююз22430 0.0 1040747
14:00+13зюз33342 0.0 10391132
17:00+13зюз44340 0.0 10371015
20:00+9зюз33560 0.0 103633
14 апреля, ср
ср1423:00+7юз36692 0.0 103593
02:00+6юз397971 0.0 1034154
05:00+6юз41182100 0.0 1033201
08:00+9юз5117375 0.0 1032320
11:00+14зюз576413 0.0 1030587
14:00+17зюз675373 0.0 10281159
17:00+17з575498 0.0 10261220
20:00+13зюз357350 0.0 102574
15 апреля, чт
чт1523:00+10зюз38805 0.0 1024123
02:00+8зюз378012 0.0 102397
05:00+7зюз36755 0.0 102280
08:00+10з48635 0.0 1022240
11:00+15з57455 0.0 1020799
14:00+17з56378 0.0 10191357
17:00+17з45385 0.0 10181276
20:00+13зюз345954 0.0 101743